Find ADDCUBE

NORAD ID: 64560 Int'l Des: NNA 2025-135 Owner: NARAST Country: KR operational
LEOCIRCULARRETROGRADESSO

Current View

Loading 3D Globe...

About ADDCUBE

Description loading...

Upcoming Passes

Passes for default location (London). Set your location on the main map for personalized predictions.

Altitude History

Loading altitude history...

Two-Line Element Set

1 64560U 25135AJ 26149.27213177 .00006952 00000-0 63361-3 0 9993
2 64560 97.7720 264.1103 0001328 79.0555 281.0815 14.95440969 51087
Epoch: May 29, 2026 • Age: 19 hours

Current Status

Altitude 589.2 km
Velocity 7.56 km/s
Sub-Earth Point -19.94°S, 178.19°E
Launch Date Jun 23, 2025
Age 0.9 years
Type other

Technical Details

Classification Payload
Mass 10.00 kg
Dry Mass 10.00 kg
Total Mass 10.00 kg
Length 0.30 m
Diameter 0.20 m
Span 0.30 m
Shape Box
Manufacturer NARAST
Bus Type Cubesat 6U
Phase Status In Orbit
Owner/State NARAST/KR

Most Searched